GFSWCAN_250_rhum_036.txt.gz
RH
7 6 4 3 3 3 2 2 2 2 2 2 2 2 2 2 2 2 2 2 2 3 4 5 6 6 7 5 7 10 12 12 12 13 12 8 8 15 22 28 35 37 49 62 70 71 47 58 94 100 100 100 97 84
4 3 3 3 3 3 2 2 2 2 2 2 2 2 2 2 2 2 2 2 3 3 4 4 5 5 6 6 8 10 11 15 18 14 14 12 13 16 18 22 30 32 35 43 46 35 54 100 100 100 100 100 100 71
3 3 3 3 3 2 2 2 2 2 2 2 2 2 2 2 2 2 2 2 2 3 4 4 4 5 6 7 9 9 11 12 13 9 11 9 12 16 16 22 30 32 30 32 40 48 100 100 100 100 100 100 80 53
4 4 4 3 2 2 2 2 2 2 2 2 2 2 2 2 2 2 2 2 3 3 3 4 5 5 6 8 9 12 17 9 10 9 10 9 15 18 23 27 33 34 30 41 62 99 100 100 100 100 100 97 92 88
4 4 3 3 3 2 2 2 2 2 2 2 2 2 2 2 2 2 2 3 3 4 4 5 6 6 8 8 8 10 10 8 12 11 11 16 17 20 25 29 37 39 47 68 100 100 100 100 100 100 92 100 100 100
5 5 4 3 3 2 2 2 2 2 2 2 2 2 2 2 2 2 3 3 4 4 5 6 7 7 8 9 8 7 6 9 12 10 15 19 23 22 29 43 54 50 75 99 100 100 100 100 100 100 100 88 100 100
6 5 4 4 3 3 3 2 2 2 2 2 2 2 2 3 3 4 4 5 5 6 6 7 7 8 9 9 8 6 7 9 12 18 19 22 27 33 50 59 66 89 100 100 99 100 100 100 100 100 93 100 100 100
7 5 5 4 4 4 4 3 4 4 4 3 3 3 4 4 4 5 6 6 7 8 7 8 8 9 9 8 7 7 11 12 15 20 23 29 36 48 66 82 87 80 79 93 80 100 100 100 100 99 92 100 100 100
6 6 5 5 4 4 4 4 4 5 5 5 6 5 6 6 6 8 7 7 7 8 8 8 7 7 8 7 7 8 11 13 18 20 27 35 50 38 62 100 100 99 84 97 100 94 96 100 100 100 89 72 76 63
6 6 6 6 5 5 5 5 5 5 5 6 6 6 6 6 6 6 6 6 7 8 9 8 8 7 7 7 9 10 12 18 21 42 47 51 45 53 76 100 100 95 100 100 100 100 100 100 100 100 84 85 78 68
4 5 5 5 6 6 7 7 6 6 6 6 6 7 7 7 6 6 7 8 8 8 7 7 8 9 10 11 11 13 23 23 41 59 58 58 61 87 100 100 100 100 100 100 100 100 100 100 100 85 72 100 100 77
4 4 5 5 5 6 6 6 6 6 6 6 7 7 6 6 6 6 7 6 6 7 7 9 11 10 14 13 12 22 27 36 52 50 56 77 92 100 94 95 100 100 100 100 100 100 100 99 85 82 100 100 100 100
4 4 4 4 5 5 5 4 5 5 5 5 6 7 6 5 5 6 6 6 7 8 9 11 11 15 16 20 24 28 38 53 54 58 86 100 100 100 80 75 94 100 100 100 100 100 100 100 100 100 100 95 96 100
5 5 6 6 5 5 5 5 5 5 5 5 4 4 4 5 6 6 7 6 8 10 10 12 11 12 17 28 37 38 48 55 58 88 100 100 100 96 86 87 98 100 100 100 100 99 94 76 82 82 71 92 95 92
7 7 7 6 6 6 6 6 6 7 7 6 6 6 6 6 7 8 8 7 11 12 12 14 15 16 20 36 33 36 45 58 75 91 93 90 94 95 95 94 99 96 86 81 78 79 78 75 77 92 98 94 93 94
8 9 9 9 10 10 10 9 8 9 8 8 7 7 7 7 8 9 9 9 12 14 16 16 16 16 26 38 30 24 35 46 59 68 87 82 87 98 100 97 94 94 97 93 81 80 78 75 72 72 71 70 71 82
15 13 13 14 14 14 14 13 11 12 11 9 8 8 8 8 10 13 14 16 19 22 25 25 22 26 30 34 33 33 31 43 48 49 67 80 86 93 97 95 93 92 92 88 84 88 89 90 96 97 99 100 100 100
21 21 20 21 17 16 18 17 14 13 13 13 11 11 11 10 11 13 18 22 23 26 27 40 40 40 38 36 37 40 39 48 53 55 70 78 77 82 87 88 84 82 80 80 84 92 96 96 98 99 97 93 98 100
31 30 29 28 27 25 23 19 17 16 16 17 19 17 16 17 17 19 22 25 32 39 46 49 55 60 60 59 57 57 63 69 70 70 80 82 86 90 92 91 87 84 85 85 82 76 67 63 61 63 68 75 77 82
45 50 48 43 33 28 29 26 24 27 26 29 27 23 23 26 30 34 33 34 38 41 45 51 62 78 85 84 82 77 74 78 78 72 77 85 94 94 92 90 87 82 70 59 53 48 45 43 42 43 45 45 43 41
72 77 76 78 67 44 36 39 42 34 34 35 36 39 42 43 40 40 41 43 45 47 48 48 50 55 61 68 72 75 77 78 80 80 77 73 67 65 64 61 56 52 46 42 39 37 36 37 36 35 33 33 32 33
94 88 79 74 76 76 63 54 55 54 60 68 70 72 70 63 59 69 78 72 69 64 59 59 59 56 57 57 56 56 56 57 56 56 54 52 50 47 44 40 36 36 35 33 32 32 32 32 34 36 36 35 34 32
93 93 98 88 85 84 73 65 70 75 71 76 75 76 75 74 75 77 79 79 79 79 77 73 70 70 69 68 66 65 67 68 68 68 66 62 58 53 50 44 41 40 38 34 33 30 28 28 27 27 26 25 24 23
95 96 82 89 89 88 78 68 61 65 72 82 84 82 83 85 84 78 73 74 74 76 76 74 73 70 68 66 65 65 63 60 54 47 45 40 35 34 32 32 30 28 26 25 24 23 21 19 17 16 16 15 14 13
75 76 77 77 82 73 68 64 68 70 70 74 75 77 79 84 85 87 92 94 98 93 89 88 88 89 91 88 80 73 62 50 39 32 27 25 23 22 20 18 16 15 13 13 12 12 11 10 10 9 8 6 5 5
63 66 66 66 65 68 71 76 80 80 76 74 79 85 87 87 87 86 83 82 81 81 81 82 81 78 71 63 50 33 21 16 14 13 11 9 8 6 6 5 5 4 4 4 4 4 4 4 4 4 4 4 4 4
60 66 65 59 65 74 76 76 78 84 90 91 88 86 84 80 78 80 84 81 83 77 70 63 52 42 28 15 10 8 7 6 5 4 4 4 4 4 4 3 3 3 3 3 3 3 3 3 3 3 3 3 2 2
66 64 66 76 86 88 88 88 88 86 80 77 74 76 75 74 72 79 80 68 57 44 36 25 15 9 6 6 5 5 4 4 4 4 4 4 3 3 3 3 3 3 3 3 3 3 2 2 2 2 2 2 2 2
80 85 88 88 89 90 88 83 78 74 73 72 70 69 71 72 60 49 42 35 28 19 12 8 6 5 5 4 4 4 4 4 3 3 3 3 3 2 2 2 2 2 2 2 2 2 3 3 2 2 2 2 2 2
89 94 92 92 87 82 78 75 72 71 64 63 60 52 43 34 32 27 22 16 11 8 6 5 5 4 4 4 4 3 3 3 2 2 2 2 2 3 3 3 3 3 3 3 2 2 2 2 2 2 2 2 2 2
88 85 82 81 80 79 81 69 54 45 41 39 34 28 25 23 18 16 12 9 7 6 5 4 4 4 3 3 3 3 3 3 3 3 3 3 2 2 2 2 2 2 2 2 2 2 2 2 2 1 1 1 1 1
77 73 70 69 64 58 47 38 33 29 26 23 21 19 15 13 11 8 7 6 5 4 4 4 3 3 3 3 3 3 3 2 2 2 2 2 2 2 2 2 2 2 2 2 2 1 1 1 1 1 1 1 1 1
52 49 47 44 37 32 27 23 21 19 17 15 13 11 9 8 7 6 5 4 4 3 3 3 3 3 3 3 2 2 2 2 2 2 2 2 2 2 2 2 1 1 1 1 1 1 1 1 1 1 1 1 2 2

GFSWCAN_250_rhum_039.txt.gz
RH
12 9 8 7 7 6 4 3 3 3 3 3 3 3 3 3 3 3 4 4 4 3 4 3 4 6 7 7 8 12 16 13 7 6 10 13 16 11 12 12 18 21 26 38 43 49 67 79 91 91 100 100 99 83
8 6 6 5 3 3 3 3 3 3 3 3 3 3 3 3 3 3 4 4 3 3 3 3 3 4 5 6 7 7 8 8 7 11 15 20 28 13 15 18 15 20 20 20 22 25 41 46 56 83 86 81 85 68
6 5 3 3 4 4 3 3 3 2 2 2 2 2 2 2 3 3 3 3 3 2 3 3 3 4 5 5 5 6 7 8 9 13 17 19 26 20 11 16 17 17 18 21 19 28 31 44 46 57 74 75 79 75
3 3 4 4 4 3 3 2 2 2 2 2 2 2 2 2 2 2 3 3 3 3 3 2 3 3 4 4 6 7 8 8 11 14 16 15 13 16 17 23 22 26 21 18 19 30 39 40 48 54 63 67 62 64
4 4 4 4 3 2 2 2 2 2 2 2 2 2 2 2 2 2 2 3 3 3 2 3 3 4 4 5 6 7 8 11 13 14 13 14 12 13 18 19 19 39 39 22 27 38 36 47 49 74 62 78 100 100
5 4 3 3 3 2 2 2 2 2 2 2 2 2 2 2 2 2 2 2 2 2 2 3 4 4 6 7 8 9 11 12 12 12 13 12 14 12 15 21 45 61 32 22 22 30 44 49 45 97 100 100 100 76
4 4 4 4 3 3 2 2 2 2 2 2 2 2 2 2 3 2 3 2 3 3 4 4 5 6 7 8 10 10 10 11 13 12 13 14 15 20 15 17 20 18 23 25 20 32 47 54 76 100 100 100 100 100
5 5 5 5 4 3 3 2 2 2 2 2 2 2 2 2 2 2 3 4 4 5 6 7 7 8 8 8 9 10 11 14 15 11 11 15 16 23 17 15 20 26 32 30 30 38 53 59 68 100 100 100 100 100
6 6 6 6 5 4 3 3 3 3 3 3 3 3 4 4 4 5 6 6 7 8 8 8 8 9 10 10 10 10 10 10 10 10 9 15 16 14 19 24 27 30 36 42 33 45 66 75 85 100 100 100 100 100
7 6 6 6 6 5 5 4 4 4 5 5 5 5 5 6 7 7 7 7 7 7 8 9 11 12 11 12 12 11 12 10 9 12 16 12 12 17 26 33 42 48 63 64 47 58 84 100 96 100 100 100 100 100
6 7 7 6 6 6 6 6 5 5 5 5 5 6 7 7 7 7 7 8 9 10 10 11 12 13 15 15 17 18 16 12 14 18 17 18 23 26 37 44 60 77 84 80 72 71 75 90 98 100 100 98 100 100
7 7 8 7 7 7 8 9 9 8 7 7 7 6 7 7 8 9 10 10 10 9 9 11 12 12 12 12 13 14 16 19 20 21 18 26 37 46 57 78 93 97 89 95 100 100 99 95 97 99 98 99 96 92
6 6 6 7 8 8 8 8 8 9 10 10 10 9 9 10 11 10 10 12 12 12 11 12 11 12 13 13 15 16 18 19 20 23 32 53 59 65 79 91 100 96 98 99 100 99 99 100 100 100 99 100 100 100
6 6 6 5 6 6 6 7 7 7 8 8 9 12 13 14 11 12 11 12 11 11 10 11 12 13 14 16 20 20 22 19 26 37 55 65 64 70 85 92 94 99 100 100 100 100 100 100 100 100 100 100 100 100
7 7 7 6 6 6 6 6 6 6 5 6 6 7 8 12 11 10 10 10 11 11 12 14 14 16 18 24 27 23 24 34 48 63 61 60 72 83 97 100 100 100 98 96 99 99 97 98 100 99 99 99 100 100
10 10 11 10 9 8 6 6 6 6 6 6 6 7 7 8 9 9 10 12 13 15 16 17 19 21 26 38 38 45 46 49 53 70 69 72 80 84 92 94 85 86 90 93 91 91 93 97 99 97 92 92 98 98
16 15 14 14 14 13 11 8 8 8 8 7 7 7 7 10 11 12 13 15 16 19 19 24 24 27 29 38 41 37 37 34 41 48 56 71 79 83 94 98 96 96 92 89 90 94 93 91 91 93 90 85 74 69
21 21 19 18 16 14 13 14 13 11 10 9 9 9 11 13 15 17 20 21 24 23 24 23 26 30 33 40 43 44 44 37 39 47 51 59 68 71 81 82 86 91 86 77 80 83 81 78 76 74 73 73 76 73
29 27 25 22 21 20 16 14 12 13 12 12 11 10 13 16 19 20 25 28 30 29 29 28 30 33 42 46 50 50 46 43 42 40 41 42 44 55 71 75 64 64 68 74 79 79 76 75 78 78 72 66 64 68
46 42 37 30 27 22 21 20 18 20 17 17 20 19 16 17 23 34 38 39 37 36 34 34 36 38 38 43 48 52 51 49 44 44 46 49 48 46 47 56 64 70 74 79 79 80 78 78 79 82 85 86 84 77
73 75 72 62 44 34 32 26 29 28 26 23 21 24 33 38 42 44 47 54 58 61 62 64 64 70 79 87 89 86 82 85 83 86 91 96 90 90 88 85 84 80 81 80 80 79 73 62 53 47 44 38 32 27
82 78 72 73 78 68 51 41 48 48 48 51 48 50 58 61 63 63 60 52 54 58 60 62 65 68 77 88 92 90 87 85 84 79 73 68 62 61 58 52 46 40 35 32 28 24 22 21 19 18 17 15 14 15
94 94 92 80 70 74 71 70 63 61 58 58 62 64 66 69 76 72 80 80 80 79 82 84 84 84 85 85 85 83 82 80 81 80 78 74 67 58 50 42 33 27 23 19 18 17 17 17 18 18 18 18 18 18
92 98 100 95 89 82 85 74 67 68 75 77 78 80 84 92 98 97 97 97 96 94 94 94 92 88 83 80 79 77 75 71 65 59 55 47 40 35 30 26 24 22 21 20 20 20 18 17 16 14 13 12 11 10
90 91 90 96 100 98 90 89 86 87 94 94 94 96 99 100 100 100 100 100 100 100 100 98 95 92 92 89 86 79 69 61 53 40 26 19 17 17 17 16 14 11 9 8 7 6 5 5 5 4 4 4 4 4
75 76 79 83 85 82 82 85 90 91 89 86 84 86 93 94 95 95 95 95 92 91 92 93 91 88 85 76 67 53 39 25 18 16 13 11 8 7 6 5 4 4 4 4 4 4 4 3 3 3 3 3 3 3
71 70 69 68 77 74 70 72 70 67 65 74 79 77 78 80 81 78 80 85 87 82 73 68 62 54 46 36 26 16 10 8 6 5 5 4 4 4 4 4 3 3 3 3 3 3 3 3 2 2 2 2 2 2
68 71 69 72 70 69 68 64 63 64 67 68 70 73 74 75 71 66 60 53 48 48 44 39 32 26 18 11 7 6 5 5 5 4 4 4 4 3 3 3 3 3 2 2 2 2 2 2 2 2 2 2 2 2
66 65 64 65 66 68 69 71 71 69 68 65 69 71 70 59 53 48 43 43 42 38 32 25 16 10 6 6 5 5 4 4 4 3 3 3 3 3 2 2 3 3 3 3 3 3 2 2 2 2 2 2 2 2
64 66 66 68 68 66 67 69 68 68 67 69 63 55 52 48 44 39 39 36 31 23 16 10 7 6 5 4 4 4 3 3 3 2 3 3 3 3 3 3 2 2 2 2 2 2 2 2 2 2 2 2 1 1
67 67 66 67 69 68 65 63 62 62 62 62 54 47 42 40 35 32 28 22 16 12 8 6 5 4 4 4 3 3 3 3 3 3 3 2 2 2 2 2 2 2 2 2 2 2 2 2 2 1 1 1 1 1
65 66 62 56 53 58 60 56 52 47 46 44 39 34 28 25 20 17 14 10 8 6 5 4 4 4 3 3 3 3 3 3 2 2 2 2 2 2 2 2 2 2 2 2 2 1 1 1 1 1 1 1 1 1
45 43 44 46 46 45 43 40 37 34 30 25 19 17 15 14 11 8 7 6 5 4 4 4 3 3 3 3 3 3 2 2 2 2 2 2 2 2 2 2 2 2 1 1 1 1 1 1 1 1 1 1 1 1

GFSWCAN_250_rhum_045.txt.gz
RH
4 4 5 6 7 7 7 7 7 7 9 11 13 13 15 16 16 14 15 16 18 20 22 31 34 34 42 32 39 51 31 16 13 14 15 22 18 16 16 18 16 14 13 12 10 10 14 22 23 29 25 29 46 46
5 5 6 6 6 8 9 11 13 14 14 15 15 16 17 18 16 15 14 17 17 14 24 24 32 46 49 50 57 40 32 31 22 18 23 24 24 18 21 23 26 23 19 12 10 11 14 16 17 20 22 24 32 42
5 6 9 11 11 10 10 10 9 9 9 9 10 11 11 11 12 10 12 13 12 11 18 16 24 26 25 34 40 35 40 35 28 21 20 17 22 26 21 26 30 22 18 13 11 19 16 15 15 20 20 23 29 31
9 8 7 6 6 5 5 4 4 4 4 4 4 4 5 6 6 6 6 12 7 7 7 15 15 10 18 23 23 21 28 25 22 18 13 14 15 19 18 21 29 23 14 13 13 17 16 19 22 20 21 36 33 28
5 4 3 3 3 4 4 4 4 4 4 4 4 5 4 5 5 5 5 6 6 5 6 6 6 8 9 10 13 14 14 14 12 10 8 8 9 9 13 17 24 19 17 16 20 19 32 47 40 34 32 46 64 41
4 4 5 4 4 4 4 3 3 3 4 4 4 4 4 5 5 6 7 8 8 8 9 8 8 6 7 7 8 9 9 6 5 5 5 6 9 11 15 18 18 18 21 22 23 22 38 39 41 47 59 56 34 37
6 5 5 5 4 4 4 4 3 3 3 2 2 2 3 3 4 4 5 4 5 6 6 6 6 5 5 6 6 6 5 5 5 5 6 7 8 10 12 12 12 18 22 26 28 33 40 42 40 41 42 38 45 39
5 5 5 4 4 3 3 3 2 2 2 2 2 2 2 2 2 3 3 4 4 4 5 6 9 8 7 6 6 6 6 5 5 6 6 7 8 9 10 11 14 22 27 28 32 31 30 30 41 51 50 45 46 65
6 5 4 4 3 3 3 3 3 2 3 3 3 3 3 3 3 3 3 3 4 4 6 7 6 6 5 5 4 5 4 4 5 5 6 7 7 7 11 13 16 24 29 33 36 28 30 32 40 62 44 45 56 98
6 5 4 4 3 3 3 3 3 3 3 3 3 3 3 3 4 4 4 5 5 5 4 4 4 4 4 4 4 4 4 5 6 6 6 8 10 11 12 13 15 19 20 24 29 32 28 28 45 62 78 37 37 48
7 6 5 4 4 4 3 3 3 3 3 3 3 4 4 4 4 5 5 5 4 4 4 4 4 4 4 4 5 5 6 6 6 7 8 9 10 11 12 15 15 17 19 20 23 26 26 25 32 44 68 40 50 68
7 7 6 6 5 5 4 4 4 4 4 3 3 4 4 4 4 4 4 4 4 4 4 5 5 6 6 6 6 6 6 7 8 8 11 15 20 20 20 19 17 17 17 20 23 24 23 24 33 47 52 47 54 91
8 8 7 6 7 6 6 5 5 4 4 4 4 4 4 4 4 4 5 5 6 6 6 6 7 8 8 8 8 9 11 13 17 21 20 18 18 18 17 21 24 26 26 25 21 24 30 36 42 48 78 45 76 78
8 8 8 8 6 7 7 7 6 6 6 6 5 5 6 7 7 8 8 9 8 8 8 9 9 9 11 12 12 13 17 19 22 26 29 24 23 22 26 26 24 25 27 26 26 28 30 33 38 41 45 49 52 60
9 8 8 9 9 9 8 8 8 8 8 8 9 9 9 9 10 10 10 11 11 12 12 14 13 13 14 16 17 19 22 24 29 32 29 25 26 28 30 38 38 32 31 32 31 35 39 36 40 53 56 52 65 76
8 10 9 10 10 10 11 10 9 9 9 10 10 11 12 12 12 12 14 14 16 17 19 19 18 19 19 19 21 23 24 28 29 30 26 23 26 31 29 37 37 35 39 41 44 44 42 42 42 40 47 59 70 76
6 7 8 8 9 10 12 12 10 10 11 13 12 12 12 14 14 15 15 17 17 19 17 17 17 21 22 21 23 24 22 22 29 29 31 42 44 44 26 23 23 25 30 32 31 30 33 42 49 57 67 75 72 68
8 8 7 7 8 9 10 12 12 12 11 10 10 10 10 11 14 15 17 18 20 19 21 20 22 18 24 27 28 30 28 29 24 28 40 48 47 44 38 37 44 41 39 38 39 44 49 48 46 46 48 52 52 49
10 10 8 8 8 8 8 9 10 11 10 12 13 14 15 16 16 24 29 28 40 48 42 47 52 55 43 39 35 38 40 38 36 34 34 39 44 48 52 62 64 63 62 62 62 61 61 60 60 59 58 56 55 55
14 12 10 10 10 10 11 10 10 12 15 18 21 21 26 31 33 34 34 40 44 51 57 60 62 65 64 67 70 71 71 75 80 72 68 67 67 80 91 91 91 85 73 67 63 58 56 55 54 52 49 45 41 36
17 15 13 11 10 10 13 14 13 14 20 31 27 30 36 43 46 47 51 59 48 47 53 59 60 59 55 62 68 74 83 88 94 97 100 100 97 97 94 88 85 80 76 68 59 54 47 41 36 33 31 28 25 21
34 31 27 21 17 16 16 13 14 17 27 30 26 26 26 28 35 42 46 52 58 62 67 67 69 67 67 67 66 66 68 73 76 79 81 80 78 73 68 64 60 56 52 48 45 42 35 25 20 19 18 18 22 24
47 53 31 23 27 30 20 18 22 28 44 40 41 42 45 52 65 85 78 86 90 90 93 94 92 93 96 94 94 93 90 87 85 81 72 70 61 48 38 31 24 18 16 16 16 17 20 22 22 21 18 16 13 10
54 45 33 33 41 52 62 66 60 65 75 84 86 86 89 92 95 95 94 97 98 98 100 100 100 100 100 100 100 99 96 92 86 78 71 62 55 42 33 29 25 22 21 20 16 13 12 10 8 6 6 5 4 4
82 78 72 67 71 68 68 69 70 73 76 84 88 89 94 98 96 98 98 97 94 95 95 93 89 85 85 82 76 71 66 59 53 49 40 32 26 22 17 13 12 10 9 7 6 5 5 5 4 4 4 4 4 3
70 70 72 74 76 81 78 76 75 80 83 81 74 69 67 68 72 82 86 91 90 88 84 79 77 74 72 65 59 51 45 39 34 28 20 15 11 11 11 9 7 6 5 5 4 4 4 3 3 3 3 3 3 3
71 75 77 78 78 78 78 75 73 77 78 83 84 82 83 85 88 89 89 84 83 81 80 75 70 65 57 51 45 39 30 21 15 10 9 9 7 6 5 4 4 4 3 3 3 3 3 3 3 3 3 3 2 2
86 88 89 88 86 83 81 84 86 87 86 87 87 88 86 84 86 89 85 84 81 77 73 65 56 48 41 31 24 18 12 9 8 8 6 5 4 4 3 3 3 3 3 3 3 3 2 2 2 2 2 2 2 2
92 91 82 75 75 75 80 88 92 88 84 85 89 89 90 89 89 88 82 79 76 68 56 46 37 31 24 17 11 9 7 6 6 5 4 4 3 3 3 3 3 3 2 2 2 2 2 2 2 2 2 2 2 2
84 80 74 74 77 79 81 88 89 90 92 93 92 91 91 90 83 76 73 65 56 44 36 28 22 16 11 9 8 6 5 4 4 3 3 3 3 3 3 2 2 2 2 2 2 2 2 2 2 2 2 1 1 1
77 80 82 84 85 86 91 92 92 92 90 90 88 84 75 70 66 62 55 46 36 26 18 14 11 9 8 6 6 5 4 3 3 3 3 3 3 2 2 2 2 2 2 2 2 2 2 2 1 1 1 1 1 1
77 78 78 77 78 83 83 81 75 73 73 70 66 63 61 57 51 43 33 23 16 12 10 8 7 6 6 5 4 4 4 4 4 3 3 3 2 2 2 2 2 2 2 2 1 1 1 1 1 1 1 1 1 1
68 65 64 65 64 62 61 60 58 57 55 52 51 48 40 32 25 17 13 11 9 8 7 6 5 4 4 4 4 4 4 3 3 3 2 2 2 2 2 2 2 2 1 1 1 1 1 1 1 1 1 1 1 1

GFSWCAN_250_rhum_048.txt.gz
RH
3 3 3 3 4 4 4 4 5 6 6 8 9 9 9 9 9 12 16 15 11 12 13 13 14 14 14 14 17 17 12 12 13 15 15 16 17 17 18 21 22 23 22 22 21 22 24 23 22 19 15 19 24 24
4 4 4 4 4 5 5 6 6 7 8 9 10 10 10 10 9 10 14 22 26 19 15 12 14 16 15 22 18 16 15 14 14 16 16 14 15 16 15 14 14 15 14 12 12 13 13 13 12 11 12 13 16 22
4 4 5 5 5 5 6 6 6 7 8 9 9 9 10 11 12 13 13 15 22 33 30 28 31 21 20 29 23 22 19 15 15 14 15 17 16 17 18 19 19 17 18 15 13 18 14 11 12 9 9 10 13 17
5 5 5 5 5 5 5 6 7 8 9 10 11 13 14 15 16 18 23 20 21 28 31 51 35 33 48 35 29 33 34 22 17 15 20 23 27 28 32 28 24 23 24 22 19 20 16 19 11 14 11 9 12 17
6 5 5 5 5 5 5 5 6 6 7 8 9 9 10 11 12 13 17 15 15 15 22 30 38 45 46 48 50 54 53 41 30 19 14 26 28 28 29 26 31 32 31 23 25 20 21 21 15 15 15 10 13 18
5 4 3 3 4 4 5 5 5 4 4 4 5 5 5 6 7 6 8 12 16 15 18 22 23 22 26 38 49 66 56 47 41 36 25 19 20 20 20 18 19 23 22 16 18 18 25 28 20 18 15 17 15 17
4 4 4 4 4 4 4 5 5 6 6 7 7 8 8 8 7 7 8 15 12 8 13 14 16 15 17 26 22 44 34 26 23 19 20 16 15 13 11 11 14 18 18 18 15 17 24 26 21 23 19 14 14 17
6 5 4 4 4 4 3 3 4 4 4 4 5 6 6 7 7 8 9 8 9 9 9 10 11 10 11 16 18 25 19 17 12 15 11 9 8 6 6 11 12 12 12 12 14 15 28 27 22 23 22 18 14 15
5 5 4 4 3 3 3 3 3 2 3 3 3 3 4 4 5 6 7 8 8 9 10 10 10 10 10 9 8 8 8 7 8 7 6 5 6 7 7 7 8 9 10 10 11 16 29 25 24 22 21 22 19 20
6 5 4 3 3 3 3 3 3 2 3 3 3 3 3 3 4 4 4 4 5 6 7 8 9 11 12 11 10 9 8 7 6 6 6 6 6 5 6 7 8 9 10 11 14 24 29 29 28 27 30 34 38 39
6 5 4 3 3 4 4 4 3 3 3 3 4 4 4 4 4 4 4 4 5 5 6 6 7 8 8 8 8 7 6 6 6 6 6 6 6 7 9 9 9 11 11 12 15 21 26 29 27 29 35 35 37 38
6 5 5 4 4 4 4 4 4 4 3 3 3 3 3 4 4 4 4 5 5 6 6 7 7 6 6 6 6 5 5 6 8 8 9 10 11 10 11 11 12 12 12 13 18 22 23 21 23 26 29 34 35 40
7 6 5 5 4 4 4 4 4 4 4 4 4 4 4 5 5 5 5 5 5 5 5 5 5 5 5 5 6 7 8 8 9 12 13 12 10 11 12 12 12 14 16 17 18 20 21 22 22 23 24 26 30 39
8 8 7 6 6 5 5 5 5 5 5 5 6 5 5 6 5 6 6 6 6 6 6 6 7 8 8 8 10 10 10 12 15 14 12 10 12 12 12 12 13 14 15 17 19 20 21 24 27 30 35 34 34 39
9 9 9 9 8 8 8 7 7 6 6 6 6 6 6 7 8 8 8 8 8 9 9 9 10 10 10 10 10 11 13 13 12 12 14 15 16 16 17 18 18 19 21 23 24 25 26 27 28 30 36 39 39 45
11 10 10 11 12 11 10 10 9 9 9 9 9 10 10 10 10 11 11 11 11 12 12 12 12 13 13 14 12 13 13 14 15 19 19 20 22 22 22 24 29 38 41 44 43 39 37 34 33 32 31 32 32 34
11 11 12 13 13 13 13 13 11 11 11 12 13 14 14 15 16 16 17 18 16 16 17 18 19 21 19 20 19 20 19 20 21 21 22 28 31 30 31 38 36 26 29 27 21 18 18 22 27 28 30 33 34 36
9 11 14 18 22 20 20 18 15 14 15 16 15 16 17 19 19 19 19 20 23 24 26 28 25 24 22 20 20 23 27 27 28 33 30 32 40 45 42 48 46 50 49 43 51 56 59 54 54 56 52 50 51 53
9 10 13 19 26 24 21 19 15 14 15 16 14 15 18 22 32 35 39 45 44 47 45 49 55 58 51 54 56 59 68 82 82 81 76 64 71 76 77 82 81 82 78 67 57 61 62 64 64 62 60 57 56 55
10 13 14 16 20 18 17 14 14 16 17 21 25 25 36 47 59 70 74 84 85 81 77 77 75 80 84 89 90 92 94 96 100 99 100 98 92 87 82 78 74 71 68 66 63 60 56 50 44 41 38 34 30 27
11 13 15 11 11 14 19 22 25 28 34 31 29 36 55 68 79 84 84 87 84 97 94 100 100 100 95 92 91 94 94 95 100 100 100 100 92 88 86 82 76 68 65 61 53 46 40 34 28 24 21 18 18 19
12 14 14 14 15 20 24 38 40 42 43 32 32 38 44 54 61 65 58 63 66 65 68 70 73 73 75 78 80 84 87 86 84 82 80 79 76 71 66 62 55 50 43 36 30 28 26 26 26 26 25 24 24 25
19 20 19 20 20 20 27 43 47 46 39 41 45 54 57 56 59 62 64 72 84 88 89 91 91 89 93 91 91 91 90 91 93 89 81 78 79 72 60 50 43 38 33 28 25 23 22 20 19 17 14 12 9 8
46 46 36 31 31 39 46 50 47 45 50 56 59 60 63 72 86 91 94 97 100 98 99 99 98 99 96 95 96 95 92 86 82 80 76 72 63 54 47 38 31 28 24 20 19 17 14 10 8 7 6 6 5 5
62 51 49 44 50 51 62 61 61 66 67 69 71 79 82 89 88 94 97 100 100 100 100 100 100 100 100 97 89 81 74 71 65 59 50 43 36 29 23 22 20 18 14 11 9 8 7 6 5 4 4 4 4 4
59 59 60 64 68 75 75 74 74 74 83 86 90 90 94 96 98 99 98 98 98 96 90 86 79 73 70 70 71 68 59 48 39 31 25 18 15 14 12 9 8 6 5 5 4 4 4 3 3 3 3 3 4 4
81 82 87 94 94 93 94 92 89 84 81 81 81 82 86 84 83 80 77 78 82 81 83 83 80 77 75 72 61 47 38 27 20 13 12 11 9 7 6 5 4 4 3 3 3 3 3 3 3 3 3 3 2 2
95 99 98 97 97 92 91 90 90 91 92 92 88 85 82 84 87 90 93 95 98 99 97 92 88 80 68 51 38 27 19 14 12 10 8 6 6 4 4 3 3 3 3 3 3 3 3 2 2 2 2 2 2 2
100 100 100 97 96 94 94 95 94 91 91 95 97 98 98 100 100 100 100 100 98 95 92 85 70 51 37 26 20 16 13 10 8 7 5 4 4 3 4 4 3 3 3 3 2 2 2 2 2 2 2 2 2 2
94 92 97 99 98 97 96 96 97 99 99 100 100 100 100 100 98 99 98 94 90 81 68 54 39 27 21 16 13 10 8 6 5 4 4 4 4 4 4 3 3 2 2 2 2 2 2 2 2 2 2 2 2 1
85 86 85 88 92 93 99 99 99 99 99 100 99 100 100 100 92 82 73 66 57 48 36 28 22 16 11 9 8 6 4 4 4 4 4 4 4 3 3 2 2 2 2 2 2 2 2 2 1 1 1 1 1 1
81 85 85 83 83 85 89 93 94 93 93 91 88 85 82 76 68 59 47 38 31 24 19 14 11 8 7 6 5 4 4 4 4 4 4 3 3 3 2 2 2 2 2 2 2 2 1 1 1 1 1 1 1 1
89 86 89 90 84 79 74 71 69 66 65 65 65 62 55 46 37 29 23 20 17 13 10 8 8 7 5 4 4 4 4 4 4 4 3 3 2 2 2 2 2 2 2 2 2 1 1 1 1 1 1 1 1 1